,,PA_Meas_PMT16A,,PR_Meas_QMR101_102,,RH_Meas_QMH101,,SR_Meas_QMS101,,TA_Meas_QMH101,,GenWind,,GenWind,
time,status,PA,status,PR,status,RH,status,SR,status,TA,status,DirAvg,status,SpdAvg,
2014-11-07, 00:00:05,VALID,918.822,VALID,0,VALID,97.4806,VALID,0.107441,VALID,19.0203,VALID,111,VALID,0.872266,
2014-11-07, 00:01:05,VALID,918.803,VALID,0,VALID,97.4501,VALID,0.107441,VALID,19.0398,VALID,111,VALID,0.888281,
2014-11-07, 00:02:05,VALID,918.774,VALID,0,VALID,97.4806,VALID,0,VALID,19.0203,VALID,105,VALID,0.651953,
2014-11-07, 00:03:05,VALID,918.754,VALID,0,VALID,97.4882,VALID,0,VALID,19.0008,VALID,112,VALID,0.804688,
2014-11-07, 00:04:05,VALID,918.722,VALID,0,VALID,97.473,VALID,0.107441,VALID,19.0008,VALID,102,VALID,0.626562,
2014-11-07, 00:05:05,VALID,918.671,VALID,0,VALID,97.4806,VALID,0.107441,VALID,18.9814,VALID,97,VALID,0.812891,
2014-11-07, 00:06:05,VALID,918.687,VALID,0,VALID,97.473,VALID,0.107441,VALID,18.9814,VALID,97,VALID,0.496875,
2014-11-07, 00:07:05,VALID,918.666,VALID,0,VALID,97.5035,VALID,0.107441,VALID,19.0023,VALID,97,VALID,0.511719,
2014-11-07, 00:08:05,VALID,918.644,VALID,0,VALID,97.5187,VALID,0.107441,VALID,18.9814,VALID,97,VALID,0.260547,
2014-11-07, 00:09:05,VALID,918.649,VALID,0,VALID,97.4959,VALID,0,VALID,18.9828,VALID,97,VALID,0.128125,
2014-11-07, 00:10:05,VALID,918.649,VALID,0,VALID,97.5264,VALID,0,VALID,18.9828,VALID,119,VALID,0.771484,
2014-11-07, 00:11:05,VALID,918.611,VALID,0,VALID,97.5187,VALID,0,VALID,19.0218,VALID,119,VALID,0.114063,
2014-11-07, 00:12:04,VALID,918.589,VALID,0,VALID,97.5264,VALID,0,VALID,19.0218,VALID,119,VALID,0.210156,
2014-11-07, 00:13:04,VALID,918.569,VALID,0,VALID,97.5416,VALID,0,VALID,19.0218,VALID,119,VALID,0.146875,
2014-11-07, 00:14:04,VALID,918.539,VALID,0,VALID,97.5569,VALID,0,VALID,19.0218,VALID,119,VALID,0,
2014-11-07, 00:15:04,VALID,918.518,VALID,0,VALID,97.5416,VALID,0,VALID,19.0413,VALID,119,VALID,0,
2014-11-07, 00:16:04,VALID,918.512,VALID,0,VALID,97.5721,VALID,0,VALID,19.0218,VALID,119,VALID,0,
2014-11-07, 00:17:04,VALID,918.487,VALID,0,VALID,97.6026,VALID,0,VALID,19.0218,VALID,122,VALID,0.551953,
2014-11-07, 00:18:04,VALID,918.475,VALID,0,VALID,97.6102,VALID,0,VALID,19.0232,VALID,126,VALID,0,
2014-11-07, 00:19:04,VALID,918.479,VALID,0,VALID,97.6102,VALID,0,VALID,19.0218,VALID,127,VALID,0,
2014-11-07, 00:20:04,VALID,918.492,VALID,0,VALID,97.6331,VALID,0,VALID,19.0218,VALID,126,VALID,0,
2014-11-07, 00:21:04,VALID,918.493,VALID,0,VALID,97.6178,VALID,0,VALID,19.0218,VALID,127,VALID,0,
2014-11-07, 00:22:04,VALID,918.513,VALID,0,VALID,97.6407,VALID,0,VALID,19.0218,VALID,127,VALID,0,
2014-11-07, 00:23:04,VALID,918.515,VALID,0,VALID,97.6331,VALID,0,VALID,19.0413,VALID,127,VALID,0,
2014-11-07, 00:24:04,VALID,918.53,VALID,0,VALID,97.6407,VALID,0.107441,VALID,19.0608,VALID,127,VALID,0,
2014-11-07, 00:25:04,VALID,918.537,VALID,0,VALID,97.6636,VALID,0.107441,VALID,19.0593,VALID,127,VALID,0,
2014-11-07, 00:26:04,VALID,918.544,VALID,0,VALID,97.6636,VALID,0.107441,VALID,19.0593,VALID,127,VALID,0,
2014-11-07, 00:27:04,VALID,918.514,VALID,0,VALID,97.6636,VALID,0.107441,VALID,19.0788,VALID,127,VALID,0,
2014-11-07, 00:28:04,VALID,918.517,VALID,0,VALID,97.6712,VALID,0.107441,VALID,19.0788,VALID,127,VALID,0,
2014-11-07, 00:29:04,VALID,918.523,VALID,0,VALID,97.6788,VALID,0.107441,VALID,19.0579,VALID,127,VALID,0,
2014-11-07, 00:30:04,VALID,918.525,VALID,0,VALID,97.6865,VALID,0.107441,VALID,19.0983,VALID,127,VALID,0,
2014-11-07, 00:31:04,VALID,918.52,VALID,0,VALID,97.6712,VALID,0.107441,VALID,19.1178,VALID,127,VALID,0,
2014-11-07, 00:32:04,VALID,918.493,VALID,0,VALID,97.6941,VALID,0,VALID,19.0788,VALID,126,VALID,0,
2014-11-07, 00:33:04,VALID,918.516,VALID,0,VALID,97.6865,VALID,0.107441,VALID,19.0788,VALID,127,VALID,0,
2014-11-07, 00:34:04,VALID,918.509,VALID,0,VALID,97.6788,VALID,0.107441,VALID,19.0593,VALID,127,VALID,0,
2014-11-07, 00:35:04,VALID,918.51,VALID,0,VALID,97.6636,VALID,0.107441,VALID,19.0788,VALID,127,VALID,0,
2014-11-07, 00:36:04,VALID,918.463,VALID,0,VALID,97.6712,VALID,0.107441,VALID,19.0803,VALID,127,VALID,0,
2014-11-07, 00:37:04,VALID,918.459,VALID,0,VALID,97.656,VALID,0,VALID,19.0788,VALID,127,VALID,0,
2014-11-07, 00:38:04,VALID,918.487,VALID,0,VALID,97.6788,VALID,0,VALID,19.0983,VALID,127,VALID,0,
2014-11-07, 00:39:04,VALID,918.479,VALID,0,VALID,97.6407,VALID,0,VALID,19.0983,VALID,127,VALID,0,
2014-11-07, 00:40:04,VALID,918.442,VALID,0,VALID,97.656,VALID,0,VALID,19.0998,VALID,127,VALID,0,
2014-11-07, 00:41:04,VALID,918.461,VALID,0,VALID,97.656,VALID,0,VALID,19.0593,VALID,127,VALID,0,
2014-11-07, 00:42:04,VALID,918.454,VALID,0,VALID,97.6636,VALID,0,VALID,19.0593,VALID,127,VALID,0,
2014-11-07, 00:43:04,VALID,918.438,VALID,0,VALID,97.656,VALID,0,VALID,19.0398,VALID,127,VALID,0,
2014-11-07, 00:44:04,VALID,918.402,VALID,0,VALID,97.6483,VALID,0.107441,VALID,19.0398,VALID,131,VALID,0.438672,
2014-11-07, 00:45:04,VALID,918.404,VALID,0,VALID,97.656,VALID,0,VALID,19.0203,VALID,131,VALID,0,
2014-11-07, 00:46:04,VALID,918.38,VALID,0,VALID,97.6636,VALID,0,VALID,19.0608,VALID,135,VALID,0,
2014-11-07, 00:47:04,VALID,918.386,VALID,0,VALID,97.6483,VALID,0,VALID,19.0203,VALID,139,VALID,0,
2014-11-07, 00:48:04,VALID,918.368,VALID,0,VALID,97.656,VALID,0.107441,VALID,19.0593,VALID,139,VALID,0,
2014-11-07, 00:49:04,VALID,918.359,VALID,0,VALID,97.6636,VALID,0,VALID,19.0398,VALID,139,VALID,0,
2014-11-07, 00:50:04,VALID,918.356,VALID,0,VALID,97.6483,VALID,0.107441,VALID,19.0593,VALID,139,VALID,0,
2014-11-07, 00:51:04,VALID,918.33,VALID,0,VALID,97.6331,VALID,0.107441,VALID,19.0398,VALID,139,VALID,0,
2014-11-07, 00:52:04,VALID,918.342,VALID,0,VALID,97.6636,VALID,0,VALID,19.0398,VALID,139,VALID,0,
2014-11-07, 00:53:04,VALID,918.331,VALID,0,VALID,97.6255,VALID,0,VALID,19.0593,VALID,139,VALID,0,
2014-11-07, 00:54:04,VALID,918.349,VALID,0,VALID,97.6255,VALID,0,VALID,19.0413,VALID,139,VALID,0,
2014-11-07, 00:55:04,VALID,918.323,VALID,0,VALID,97.6331,VALID,0,VALID,19.0413,VALID,139,VALID,0,
2014-11-07, 00:56:04,VALID,918.305,VALID,0,VALID,97.6102,VALID,0,VALID,19.0218,VALID,139,VALID,0,
2014-11-07, 00:57:04,VALID,918.305,VALID,0,VALID,97.6026,VALID,0,VALID,19.0413,VALID,139,VALID,0,
2014-11-07, 00:58:04,VALID,918.296,VALID,0,VALID,97.6178,VALID,0,VALID,19.0413,VALID,139,VALID,0,
2014-11-07, 00:59:04,VALID,918.297,VALID,0,VALID,97.6026,VALID,0,VALID,19.0413,VALID,139,VALID,0,
2014-11-07, 01:00:04,VALID,918.253,VALID,0,VALID,97.5873,VALID,0,VALID,19.0608,VALID,139,VALID,0,
2014-11-07, 01:01:04,VALID,918.198,VALID,0,VALID,97.6026,VALID,0,VALID,19.0803,VALID,139,VALID,0,
2014-11-07, 01:02:04,VALID,918.216,VALID,0,VALID,97.595,VALID,0,VALID,19.0803,VALID,139,VALID,0,
2014-11-07, 01:03:04,VALID,918.187,VALID,0,VALID,97.6178,VALID,0,VALID,19.0803,VALID,139,VALID,0,
2014-11-07, 01:04:04,VALID,918.181,VALID,0,VALID,97.5873,VALID,0,VALID,19.0803,VALID,139,VALID,0,
2014-11-07, 01:05:04,VALID,918.153,VALID,0,VALID,97.5873,VALID,0,VALID,19.0803,VALID,139,VALID,0,
2014-11-07, 01:06:04,VALID,918.138,VALID,0,VALID,97.5721,VALID,0,VALID,19.0817,VALID,139,VALID,0,
2014-11-07, 01:07:04,VALID,918.117,VALID,0,VALID,97.5797,VALID,0,VALID,19.0608,VALID,138,VALID,0,
2014-11-07, 01:08:04,VALID,918.116,VALID,0,VALID,97.5797,VALID,0,VALID,19.0817,VALID,137,VALID,0.00195313,
2014-11-07, 01:09:04,VALID,918.106,VALID,0,VALID,97.5645,VALID,0.107441,VALID,19.0803,VALID,137,VALID,0,
2014-11-07, 01:10:04,VALID,918.082,VALID,0,VALID,97.5721,VALID,0,VALID,19.0398,VALID,137,VALID,0,
2014-11-07, 01:11:04,VALID,918.055,VALID,0,VALID,97.5873,VALID,0,VALID,19.0203,VALID,136,VALID,0,
2014-11-07, 01:12:04,VALID,918.023,VALID,0,VALID,97.5797,VALID,0,VALID,19.0218,VALID,136,VALID,0,
2014-11-07, 01:13:04,VALID,918.025,VALID,0,VALID,97.5721,VALID,0.107441,VALID,18.9814,VALID,136,VALID,0,
2014-11-07, 01:14:04,VALID,917.998,VALID,0,VALID,97.6026,VALID,0.107441,VALID,18.9814,VALID,118,VALID,0,
2014-11-07, 01:15:04,VALID,917.997,VALID,0,VALID,97.6255,VALID,0,VALID,18.9619,VALID,103,VALID,0.075,
2014-11-07, 01:16:04,VALID,917.947,VALID,0,VALID,97.6102,VALID,0.107441,VALID,18.9424,VALID,104,VALID,0.00429688,
2014-11-07, 01:17:04,VALID,917.952,VALID,0,VALID,97.6407,VALID,0,VALID,18.9034,VALID,106,VALID,0,
2014-11-07, 01:18:04,VALID,917.937,VALID,0,VALID,97.6331,VALID,0,VALID,18.8644,VALID,98,VALID,1.08867,
2014-11-07, 01:19:04,VALID,917.934,VALID,0,VALID,97.6483,VALID,0,VALID,18.8463,VALID,97,VALID,0.761719,
2014-11-07, 01:20:04,VALID,917.884,VALID,0,VALID,97.6712,VALID,0,VALID,18.8073,VALID,114,VALID,0.859375,
2014-11-07, 01:21:04,VALID,917.869,VALID,0,VALID,97.6636,VALID,0,VALID,18.7864,VALID,106,VALID,1.125,
2014-11-07, 01:22:04,VALID,917.885,VALID,0,VALID,97.6941,VALID,0,VALID,18.7669,VALID,107,VALID,1.28984,
2014-11-07, 01:23:04,VALID,917.874,VALID,0,VALID,97.7017,VALID,0,VALID,18.7669,VALID,106,VALID,1.48906,
2014-11-07, 01:24:04,VALID,917.888,VALID,0,VALID,97.6941,VALID,0,VALID,18.7683,VALID,121,VALID,1.22539,
2014-11-07, 01:25:04,VALID,917.864,VALID,0,VALID,97.7169,VALID,0,VALID,18.7683,VALID,115,VALID,1.45195,
2014-11-07, 01:26:04,VALID,917.863,VALID,0,VALID,97.7322,VALID,0,VALID,18.7878,VALID,127,VALID,0.734375,
2014-11-07, 01:27:04,VALID,917.842,VALID,0,VALID,97.7474,VALID,0,VALID,18.7878,VALID,127,VALID,1.01836,
2014-11-07, 01:28:04,VALID,917.848,VALID,0,VALID,97.7551,VALID,0,VALID,18.7878,VALID,131,VALID,0.506641,
2014-11-07, 01:29:04,VALID,917.863,VALID,0,VALID,97.7627,VALID,0,VALID,18.8073,VALID,129,VALID,1.2582,
2014-11-07, 01:30:04,VALID,917.86,VALID,0,VALID,97.7856,VALID,0,VALID,18.8073,VALID,132,VALID,1.02266,
2014-11-07, 01:31:04,VALID,917.843,VALID,0,VALID,97.7932,VALID,0,VALID,18.8268,VALID,134,VALID,1.16367,
2014-11-07, 01:32:04,VALID,917.812,VALID,0,VALID,97.7932,VALID,0,VALID,18.8268,VALID,119,VALID,0.957422,
2014-11-07, 01:33:04,VALID,917.799,VALID,0,VALID,97.8389,VALID,0,VALID,18.8073,VALID,114,VALID,1.23945,
2014-11-07, 01:34:04,VALID,917.82,VALID,0,VALID,97.816,VALID,0,VALID,18.8073,VALID,127,VALID,0.926562,
2014-11-07, 01:35:04,VALID,917.796,VALID,0,VALID,97.8084,VALID,0,VALID,18.8073,VALID,114,VALID,0.850781,
2014-11-07, 01:36:04,VALID,917.796,VALID,0,VALID,97.816,VALID,0,VALID,18.8268,VALID,108,VALID,0.844531,
2014-11-07, 01:37:04,VALID,917.789,VALID,0,VALID,97.8542,VALID,0,VALID,18.8073,VALID,117,VALID,0.848437,
2014-11-07, 01:38:04,VALID,917.785,VALID,0,VALID,97.8542,VALID,0,VALID,18.8282,VALID,108,VALID,0.725,
2014-11-07, 01:39:04,VALID,917.796,VALID,0,VALID,97.8618,VALID,0.107441,VALID,18.8059,VALID,111,VALID,0.598437,
2014-11-07, 01:40:04,VALID,917.816,VALID,0,VALID,97.8542,VALID,0.107441,VALID,18.8059,VALID,116,VALID,0.522266,
2014-11-07, 01:41:04,VALID,917.806,VALID,0,VALID,97.8694,VALID,0.107441,VALID,18.7864,VALID,117,VALID,0.604297,
2014-11-07, 01:42:04,VALID,917.821,VALID,0,VALID,97.8618,VALID,0.107441,VALID,18.7864,VALID,117,VALID,0,
2014-11-07, 01:43:04,VALID,917.802,VALID,0,VALID,97.877,VALID,0.107441,VALID,18.8059,VALID,117,VALID,0,
2014-11-07, 01:44:04,VALID,917.816,VALID,0,VALID,97.8847,VALID,0.107441,VALID,18.7864,VALID,117,VALID,0,
2014-11-07, 01:45:04,VALID,917.801,VALID,0,VALID,97.8694,VALID,0.107441,VALID,18.7864,VALID,117,VALID,0,
2014-11-07, 01:46:04,VALID,917.813,VALID,0,VALID,97.8694,VALID,0,VALID,18.8059,VALID,117,VALID,0,
2014-11-07, 01:47:04,VALID,917.825,VALID,0,VALID,97.8847,VALID,0,VALID,18.8059,VALID,117,VALID,0,
2014-11-07, 01:48:04,VALID,917.837,VALID,0,VALID,97.877,VALID,0.107441,VALID,18.8059,VALID,117,VALID,0,
2014-11-07, 01:49:04,VALID,917.851,VALID,0,VALID,97.9075,VALID,0.107441,VALID,18.8059,VALID,117,VALID,0,
2014-11-07, 01:50:04,VALID,917.854,VALID,0,VALID,97.9075,VALID,0.107441,VALID,18.8059,VALID,117,VALID,0,
2014-11-07, 01:51:04,VALID,917.852,VALID,0,VALID,97.8923,VALID,0,VALID,18.8059,VALID,117,VALID,0,
2014-11-07, 01:52:04,VALID,917.868,VALID,0,VALID,97.9152,VALID,0.107441,VALID,18.8254,VALID,117,VALID,0,
2014-11-07, 01:53:04,VALID,917.837,VALID,0,VALID,97.8923,VALID,0.107441,VALID,18.8449,VALID,117,VALID,0,
2014-11-07, 01:54:04,VALID,917.831,VALID,0,VALID,97.8923,VALID,0.107441,VALID,18.8644,VALID,117,VALID,0,
2014-11-07, 01:55:04,VALID,917.835,VALID,0,VALID,97.8999,VALID,0,VALID,18.8449,VALID,117,VALID,0,
2014-11-07, 01:56:04,VALID,917.806,VALID,0,VALID,97.9152,VALID,0.107441,VALID,18.8644,VALID,122,VALID,0,
2014-11-07, 01:57:04,VALID,917.809,VALID,0,VALID,97.9075,VALID,0,VALID,18.8644,VALID,131,VALID,0,
2014-11-07, 01:58:04,VALID,917.811,VALID,0,VALID,97.8999,VALID,0.107441,VALID,18.8644,VALID,132,VALID,0.423828,
2014-11-07, 01:59:04,VALID,917.768,VALID,0,VALID,97.9228,VALID,0.107441,VALID,18.8644,VALID,133,VALID,0.689844,
2014-11-07, 02:00:04,VALID,917.762,VALID,0,VALID,97.9228,VALID,0.107441,VALID,18.8644,VALID,136,VALID,0.868359,
2014-11-07, 02:01:04,VALID,917.736,VALID,0,VALID,97.9304,VALID,0,VALID,18.8644,VALID,136,VALID,0.946094,
2014-11-07, 02:02:04,VALID,917.709,VALID,0,VALID,97.9152,VALID,0.107441,VALID,18.8644,VALID,139,VALID,1.3625,
2014-11-07, 02:03:04,VALID,917.691,VALID,0,VALID,97.9228,VALID,0.107441,VALID,18.8449,VALID,139,VALID,1.12773,
2014-11-07, 02:04:04,VALID,917.641,VALID,0,VALID,97.9228,VALID,0.107441,VALID,18.8449,VALID,138,VALID,1.04375,
2014-11-07, 02:05:04,VALID,917.627,VALID,0,VALID,97.8999,VALID,0,VALID,18.8254,VALID,134,VALID,1.15,
2014-11-07, 02:06:04,VALID,917.654,VALID,0,VALID,97.9228,VALID,0,VALID,18.8463,VALID,128,VALID,1.05977,
2014-11-07, 02:07:04,VALID,917.581,VALID,0,VALID,97.938,VALID,0.107441,VALID,18.8463,VALID,127,VALID,1.325,
2014-11-07, 02:08:04,VALID,917.607,VALID,0,VALID,97.938,VALID,0.107441,VALID,18.8059,VALID,126,VALID,1.65937,
2014-11-07, 02:09:04,VALID,917.577,VALID,0,VALID,97.9152,VALID,0,VALID,18.7864,VALID,125,VALID,1.08008,
2014-11-07, 02:10:04,VALID,917.576,VALID,0,VALID,97.9304,VALID,0,VALID,18.7669,VALID,122,VALID,1.46797,
2014-11-07, 02:11:04,VALID,917.559,VALID,0,VALID,97.9304,VALID,0,VALID,18.7669,VALID,120,VALID,1.41992,
2014-11-07, 02:12:04,VALID,917.577,VALID,0,VALID,97.8999,VALID,0,VALID,18.7669,VALID,128,VALID,1.19766,
2014-11-07, 02:13:04,VALID,917.594,VALID,0,VALID,97.9152,VALID,0,VALID,18.7669,VALID,135,VALID,0.659375,
2014-11-07, 02:14:04,VALID,917.602,VALID,0,VALID,97.9152,VALID,0,VALID,18.7474,VALID,125,VALID,1.04336,
2014-11-07, 02:15:04,VALID,917.606,VALID,0,VALID,97.9075,VALID,0.107441,VALID,18.7474,VALID,119,VALID,0.830859,
2014-11-07, 02:16:04,VALID,917.573,VALID,0,VALID,97.9152,VALID,0,VALID,18.7279,VALID,120,VALID,0.800781,
2014-11-07, 02:17:04,VALID,917.556,VALID,0,VALID,97.877,VALID,0,VALID,18.7293,VALID,111,VALID,0.775391,
2014-11-07, 02:18:04,VALID,917.533,VALID,0,VALID,97.8999,VALID,0,VALID,18.7098,VALID,133,VALID,0.805859,
2014-11-07, 02:19:04,VALID,917.519,VALID,0,VALID,97.8923,VALID,0,VALID,18.7098,VALID,126,VALID,0.865625,
2014-11-07, 02:20:04,VALID,917.51,VALID,0,VALID,97.8542,VALID,0,VALID,18.6694,VALID,124,VALID,1.01563,
2014-11-07, 02:21:04,VALID,917.494,VALID,0,VALID,97.8694,VALID,0.107441,VALID,18.6889,VALID,116,VALID,0.814844,
2014-11-07, 02:22:04,VALID,917.524,VALID,0,VALID,97.8618,VALID,0.107441,VALID,18.7098,VALID,126,VALID,0.985547,
2014-11-07, 02:23:04,VALID,917.523,VALID,0,VALID,97.8618,VALID,0.107441,VALID,18.7098,VALID,132,VALID,0.849609,
2014-11-07, 02:24:04,VALID,917.507,VALID,0,VALID,97.8542,VALID,0,VALID,18.6694,VALID,132,VALID,0.479688,
2014-11-07, 02:25:04,VALID,917.515,VALID,0,VALID,97.8389,VALID,0,VALID,18.6903,VALID,132,VALID,0.3375,
2014-11-07, 02:26:04,VALID,917.474,VALID,0,VALID,97.8694,VALID,0.107441,VALID,18.6694,VALID,132,VALID,0.330859,
2014-11-07, 02:27:04,VALID,917.522,VALID,0,VALID,97.8313,VALID,0,VALID,18.6694,VALID,132,VALID,0,
2014-11-07, 02:28:04,VALID,917.473,VALID,0,VALID,97.8465,VALID,0,VALID,18.6903,VALID,132,VALID,0,
2014-11-07, 02:29:04,VALID,917.471,VALID,0,VALID,97.8389,VALID,0,VALID,18.6903,VALID,132,VALID,0,
2014-11-07, 02:30:04,VALID,917.434,VALID,0,VALID,97.8237,VALID,0,VALID,18.6694,VALID,132,VALID,0,
2014-11-07, 02:31:04,VALID,917.379,VALID,0,VALID,97.8313,VALID,0,VALID,18.6889,VALID,132,VALID,0,
2014-11-07, 02:32:04,VALID,917.386,VALID,0,VALID,97.8008,VALID,0.107441,VALID,18.7098,VALID,132,VALID,0,
2014-11-07, 02:33:04,VALID,917.316,VALID,0,VALID,97.816,VALID,0.107441,VALID,18.6889,VALID,132,VALID,0,
2014-11-07, 02:34:04,VALID,917.296,VALID,0,VALID,97.816,VALID,0,VALID,18.7279,VALID,132,VALID,0,
2014-11-07, 02:35:04,VALID,917.25,VALID,0,VALID,97.8008,VALID,0.107441,VALID,18.7488,VALID,123,VALID,0,
2014-11-07, 02:36:04,VALID,917.228,VALID,0,VALID,97.7856,VALID,0,VALID,18.7279,VALID,123,VALID,0,
2014-11-07, 02:37:04,VALID,917.184,VALID,0,VALID,97.7856,VALID,0,VALID,18.7279,VALID,123,VALID,0,
2014-11-07, 02:38:04,VALID,917.148,VALID,0,VALID,97.7627,VALID,0.107441,VALID,18.7488,VALID,132,VALID,0,
2014-11-07, 02:39:04,VALID,917.169,VALID,0,VALID,97.7474,VALID,0,VALID,18.7279,VALID,134,VALID,0,
2014-11-07, 02:40:04,VALID,917.109,VALID,0,VALID,97.7551,VALID,0,VALID,18.7293,VALID,134,VALID,0,
2014-11-07, 02:41:04,VALID,917.107,VALID,0,VALID,97.7398,VALID,0.107441,VALID,18.6889,VALID,136,VALID,0,
2014-11-07, 02:42:04,VALID,917.115,VALID,0,VALID,97.7322,VALID,0.107441,VALID,18.6694,VALID,136,VALID,0,
2014-11-07, 02:43:04,VALID,917.106,VALID,0,VALID,97.7169,VALID,0,VALID,18.6889,VALID,136,VALID,0,
2014-11-07, 02:44:04,VALID,917.1,VALID,0,VALID,97.7017,VALID,0,VALID,18.7084,VALID,136,VALID,0,
2014-11-07, 02:45:04,VALID,917.09,VALID,0,VALID,97.7169,VALID,0.107441,VALID,18.7488,VALID,136,VALID,0,
2014-11-07, 02:46:04,VALID,917.053,VALID,0,VALID,97.6941,VALID,0,VALID,18.7488,VALID,136,VALID,0,
2014-11-07, 02:47:04,VALID,917.071,VALID,0,VALID,97.7169,VALID,0.107441,VALID,18.7293,VALID,136,VALID,0,
2014-11-07, 02:48:04,VALID,917.059,VALID,0,VALID,97.6865,VALID,0,VALID,18.7293,VALID,136,VALID,0,
2014-11-07, 02:49:04,VALID,917.035,VALID,0,VALID,97.6788,VALID,0.107441,VALID,18.7084,VALID,136,VALID,0,
2014-11-07, 02:50:04,VALID,917.03,VALID,0,VALID,97.6712,VALID,0.107441,VALID,18.7084,VALID,136,VALID,0,
2014-11-07, 02:51:04,VALID,916.989,VALID,0,VALID,97.656,VALID,0,VALID,18.7098,VALID,136,VALID,0,
2014-11-07, 02:52:04,VALID,917.01,VALID,0,VALID,97.6483,VALID,0.107441,VALID,18.6903,VALID,136,VALID,0,
2014-11-07, 02:53:04,VALID,917.012,VALID,0,VALID,97.6483,VALID,0,VALID,18.6903,VALID,136,VALID,0,
2014-11-07, 02:54:04,VALID,916.977,VALID,0,VALID,97.6483,VALID,0,VALID,18.6903,VALID,136,VALID,0,
2014-11-07, 02:55:04,VALID,916.98,VALID,0,VALID,97.6331,VALID,0.107441,VALID,18.6903,VALID,136,VALID,0,
2014-11-07, 02:56:04,VALID,916.955,VALID,0,VALID,97.6102,VALID,0,VALID,18.6889,VALID,136,VALID,0,
2014-11-07, 02:57:04,VALID,916.971,VALID,0,VALID,97.6026,VALID,0,VALID,18.6889,VALID,136,VALID,0,
2014-11-07, 02:58:04,VALID,916.978,VALID,0,VALID,97.6026,VALID,0,VALID,18.6889,VALID,136,VALID,0,
2014-11-07, 02:59:04,VALID,916.979,VALID,0,VALID,97.6102,VALID,0,VALID,18.6903,VALID,136,VALID,0,
2014-11-07, 03:00:04,VALID,916.978,VALID,0,VALID,97.5873,VALID,0,VALID,18.6499,VALID,136,VALID,0,
2014-11-07, 03:01:04,VALID,916.934,VALID,0,VALID,97.5645,VALID,0,VALID,18.6903,VALID,136,VALID,0,
2014-11-07, 03:02:04,VALID,916.95,VALID,0,VALID,97.5569,VALID,0,VALID,18.6694,VALID,136,VALID,0,
2014-11-07, 03:03:04,VALID,916.94,VALID,0,VALID,97.5645,VALID,0,VALID,18.6694,VALID,136,VALID,0,
2014-11-07, 03:04:04,VALID,916.922,VALID,0,VALID,97.5569,VALID,0.107441,VALID,18.6499,VALID,136,VALID,0,
2014-11-07, 03:05:04,VALID,916.891,VALID,0,VALID,97.5492,VALID,0,VALID,18.6499,VALID,136,VALID,0,
2014-11-07, 03:06:04,VALID,916.893,VALID,0,VALID,97.5492,VALID,0,VALID,18.6304,VALID,136,VALID,0,
2014-11-07, 03:07:04,VALID,916.898,VALID,0,VALID,97.5187,VALID,0,VALID,18.6304,VALID,136,VALID,0,
2014-11-07, 03:08:04,VALID,916.892,VALID,0,VALID,97.5264,VALID,0,VALID,18.6304,VALID,136,VALID,0,
2014-11-07, 03:09:04,VALID,916.87,VALID,0,VALID,97.5264,VALID,0,VALID,18.6499,VALID,136,VALID,0,
2014-11-07, 03:10:04,VALID,916.915,VALID,0,VALID,97.5416,VALID,0,VALID,18.6499,VALID,136,VALID,0,
2014-11-07, 03:11:04,VALID,916.898,VALID,0,VALID,97.534,VALID,0.107441,VALID,18.6499,VALID,136,VALID,0,
2014-11-07, 03:12:04,VALID,916.923,VALID,0,VALID,97.5187,VALID,0.107441,VALID,18.6499,VALID,136,VALID,0,
2014-11-07, 03:13:04,VALID,916.888,VALID,0,VALID,97.5187,VALID,0,VALID,18.6903,VALID,136,VALID,0.649219,
2014-11-07, 03:14:04,VALID,916.912,VALID,0,VALID,97.5264,VALID,0,VALID,18.6694,VALID,136,VALID,0,
2014-11-07, 03:15:04,VALID,916.906,VALID,0,VALID,97.5035,VALID,0,VALID,18.6694,VALID,136,VALID,0,
2014-11-07, 03:16:04,VALID,916.911,VALID,0,VALID,97.5035,VALID,0,VALID,18.6889,VALID,136,VALID,0,
2014-11-07, 03:17:04,VALID,916.899,VALID,0,VALID,97.4882,VALID,0,VALID,18.6694,VALID,136,VALID,0,
2014-11-07, 03:18:04,VALID,916.926,VALID,0,VALID,97.4806,VALID,0,VALID,18.6694,VALID,136,VALID,0,
2014-11-07, 03:19:04,VALID,916.943,VALID,0,VALID,97.4654,VALID,0,VALID,18.6694,VALID,136,VALID,0,
2014-11-07, 03:20:04,VALID,916.903,VALID,0,VALID,97.4425,VALID,0,VALID,18.6499,VALID,136,VALID,0,
2014-11-07, 03:21:04,VALID,916.872,VALID,0,VALID,97.4577,VALID,0,VALID,18.6513,VALID,136,VALID,0,
2014-11-07, 03:22:04,VALID,916.874,VALID,0,VALID,97.4196,VALID,0,VALID,18.6304,VALID,136,VALID,0,
2014-11-07, 03:23:04,VALID,916.854,VALID,0,VALID,97.412,VALID,0,VALID,18.6319,VALID,136,VALID,0,
2014-11-07, 03:24:04,VALID,916.815,VALID,0,VALID,97.4044,VALID,0,VALID,18.572,VALID,136,VALID,0,
2014-11-07, 03:25:04,VALID,916.842,VALID,0,VALID,97.4196,VALID,0,VALID,18.572,VALID,125,VALID,0,
2014-11-07, 03:26:04,VALID,916.866,VALID,0,VALID,97.4273,VALID,0,VALID,18.5734,VALID,125,VALID,0,
2014-11-07, 03:27:04,VALID,916.895,VALID,0,VALID,97.4654,VALID,0,VALID,18.533,VALID,125,VALID,0,
2014-11-07, 03:28:04,VALID,916.898,VALID,0,VALID,97.4501,VALID,0,VALID,18.5539,VALID,125,VALID,0,
2014-11-07, 03:29:04,VALID,916.91,VALID,0,VALID,97.4882,VALID,0,VALID,18.5135,VALID,125,VALID,0,
2014-11-07, 03:30:04,VALID,916.926,VALID,0,VALID,97.4882,VALID,0,VALID,18.5149,VALID,125,VALID,0,
2014-11-07, 03:31:04,VALID,916.918,VALID,0,VALID,97.4882,VALID,0,VALID,18.4954,VALID,125,VALID,0,
2014-11-07, 03:32:04,VALID,916.92,VALID,0,VALID,97.4882,VALID,0,VALID,18.4564,VALID,125,VALID,0,
2014-11-07, 03:33:04,VALID,916.93,VALID,0,VALID,97.4959,VALID,0,VALID,18.416,VALID,125,VALID,0,
2014-11-07, 03:34:04,VALID,916.916,VALID,0,VALID,97.4959,VALID,0,VALID,18.3965,VALID,125,VALID,0,
2014-11-07, 03:35:04,VALID,916.902,VALID,0,VALID,97.5187,VALID,0,VALID,18.4174,VALID,125,VALID,0,
2014-11-07, 03:36:04,VALID,916.885,VALID,0,VALID,97.5111,VALID,0,VALID,18.4174,VALID,125,VALID,0,
2014-11-07, 03:37:04,VALID,916.915,VALID,0,VALID,97.5264,VALID,0,VALID,18.3979,VALID,125,VALID,0,
2014-11-07, 03:38:04,VALID,916.929,VALID,0,VALID,97.5416,VALID,0,VALID,18.4369,VALID,125,VALID,0,
2014-11-07, 03:39:04,VALID,916.931,VALID,0,VALID,97.5492,VALID,0,VALID,18.4369,VALID,125,VALID,0,
2014-11-07, 03:40:04,VALID,916.938,VALID,0,VALID,97.5569,VALID,0,VALID,18.4759,VALID,125,VALID,0,
2014-11-07, 03:41:04,VALID,916.944,VALID,0,VALID,97.5645,VALID,0,VALID,18.455,VALID,125,VALID,0,
2014-11-07, 03:42:04,VALID,916.949,VALID,0,VALID,97.5797,VALID,0,VALID,18.4745,VALID,125,VALID,0,
2014-11-07, 03:43:04,VALID,916.947,VALID,0,VALID,97.5721,VALID,0.107441,VALID,18.4954,VALID,125,VALID,0,
2014-11-07, 03:44:04,VALID,916.942,VALID,0,VALID,97.5645,VALID,0,VALID,18.5149,VALID,125,VALID,0,
2014-11-07, 03:45:04,VALID,916.958,VALID,0,VALID,97.5645,VALID,0,VALID,18.5149,VALID,118,VALID,0.0738281,
2014-11-07, 03:46:04,VALID,916.967,VALID,0,VALID,97.5264,VALID,0,VALID,18.5149,VALID,107,VALID,0.954297,
2014-11-07, 03:47:04,VALID,916.954,VALID,0,VALID,97.5187,VALID,0.107441,VALID,18.4745,VALID,106,VALID,0.857031,
2014-11-07, 03:48:04,VALID,916.961,VALID,0,VALID,97.4959,VALID,0,VALID,18.4745,VALID,106,VALID,0.601172,
2014-11-07, 03:49:04,VALID,916.984,VALID,0,VALID,97.4806,VALID,0,VALID,18.5149,VALID,106,VALID,0,